Change the Weather History Date:

Monday, April 8, 2013

  Actual Average Record
Temperature  
Mean Temperature 48 °F 44 °F  
Max Temperature 61 °F 55 °F 84 °F (1988)
Min Temperature 35 °F 33 °F 8 °F (2003)
Degree Days  
Heating Degree Days 17 21  
Month to date heating degree days 209 184  
Since 1 July heating degree days 7047 7099  
Cooling Degree Days 0 0  
Month to date cooling degree days 0 0  
Year to date cooling degree days 0 0  
Moisture  
Dew Point 44 °F    
Average Humidity 82    
Maximum Humidity 100    
Minimum Humidity 64    
Precipitation  
Precipitation T in 0.11 in 1.09 in (1999)
Month to date precipitation 0.15 0.72  
Sea Level Pressure  
Sea Level Pressure 29.75 in    
Wind  
Wind Speed 12 mph (NNE)    
Max Wind Speed 26 mph    
Max Gust Speed 31 mph    
Visibility 4 miles    
Events Fog    
T = Trace of Precipitation, MM = Missing Value Source: NWS Daily Summary

Daily Weather History Graph

Daily Weather History Graph

Search for Another Location

Airport or City:

Trip Planner

Search our weather history database for the weather conditions in past years. The results will help you decide how hot, cold, wet, or windy it might be!

Date:

Astronomy

Apr. 08, 2013 Rise Set
Actual Time 6:48 AM CDT 7:54 PM CDT
Civil Twilight 6:18 AM CDT 8:23 PM CDT
Nautical Twilight 5:43 AM CDT 8:58 PM CDT
Astronomical Twilight 5:07 AM CDT 9:35 PM CDT
Moon 5:41 AM CDT (4/8) 6:27 PM CDT (4/8)
Length of Visible Light 14h 04m
Length of Day
13h 06m
Waning Crescent, 3% of the Moon is Illuminated
Apr 8
Waning Crescent
Apr 10
New
Apr 18
First Quarter
Apr 25
Full
May 2
Last Quarter

Hourly Weather History & Observations

Time (CDT) Temp. Windchill Dew Point Humidity Pressure Visibility Wind Dir Wind Speed Gust Speed Precip Events Conditions
12:52 AM 46.0 °F 41.0 °F 44.1 °F 93% 29.67 in 5.0 mi ESE 10.4 mph - N/A   Mostly Cloudy
1:52 AM 46.0 °F 43.9 °F 43.0 °F 89% 29.67 in 6.0 mi SE 4.6 mph - N/A   Mostly Cloudy
2:52 AM 45.0 °F - 42.1 °F 90% 29.65 in 6.0 mi Calm Calm - 0.00 in   Scattered Clouds
3:52 AM 42.1 °F 37.7 °F 39.9 °F 92% 29.65 in 4.0 mi North 6.9 mph - N/A   Partly Cloudy
4:52 AM 39.0 °F 34.8 °F 37.0 °F 93% 29.63 in 2.5 mi NNE 5.8 mph - N/A   Clear
5:19 AM 39.2 °F 35.0 °F 39.2 °F 100% 29.61 in 3.0 mi NNE 5.8 mph - N/A   Clear
5:26 AM 39.2 °F 34.2 °F 37.4 °F 93% 29.61 in 2.5 mi NNE 6.9 mph - N/A   Clear
5:45 AM 37.4 °F 31.4 °F 37.4 °F 100% 29.61 in 1.2 mi NNE 8.1 mph - N/A   Clear
5:52 AM 37.9 °F 33.5 °F 37.0 °F 97% 29.63 in 1.0 mi NNE 5.8 mph - N/A   Clear
6:00 AM 37.4 °F 33.8 °F 35.6 °F 93% 29.61 in 0.5 mi North 4.6 mph - N/A Fog Fog
6:52 AM 36.0 °F 30.3 °F 35.1 °F 97% 29.66 in 0.2 mi NNW 6.9 mph - N/A Fog Fog
7:52 AM 37.9 °F 32.1 °F 37.0 °F 97% 29.69 in 0.2 mi North 8.1 mph - N/A Fog Fog
8:52 AM 42.1 °F 36.1 °F 41.0 °F 96% 29.70 in 0.2 mi North 10.4 mph - N/A Fog Fog
9:52 AM 45.0 °F 40.6 °F 44.1 °F 97% 29.72 in 0.2 mi North 8.1 mph - N/A Fog Fog
10:52 AM 46.0 °F 43.1 °F 45.0 °F 96% 29.74 in 0.2 mi NNE 5.8 mph - N/A Fog Fog
11:21 AM 46.4 °F 44.3 °F 46.4 °F 100% 29.74 in 1.2 mi North 4.6 mph - N/A   Overcast
11:35 AM 46.4 °F 43.5 °F 46.4 °F 100% 29.74 in 2.5 mi North 5.8 mph - N/A   Overcast
11:48 AM 48.2 °F - 46.4 °F 93% 29.74 in 3.0 mi North 4.6 mph - N/A   Overcast
11:52 AM 48.0 °F - 46.0 °F 93% 29.75 in 3.0 mi North 5.8 mph - N/A   Overcast
12:06 PM 50.0 °F - 46.4 °F 87% 29.72 in 4.0 mi NE 9.2 mph - N/A   Overcast
12:52 PM 53.1 °F - 46.9 °F 80% 29.74 in 5.0 mi NE 11.5 mph - N/A   Haze
1:26 PM 55.4 °F - 48.2 °F 77% 29.74 in 5.0 mi NE 13.8 mph 19.6 mph N/A   Haze
1:52 PM 55.9 °F - 48.0 °F 75% 29.76 in 6.0 mi NNE 9.2 mph - N/A   Haze
2:52 PM 57.9 °F - 48.9 °F 72% 29.76 in 6.0 mi NNE 12.7 mph - N/A   Haze
3:24 PM 59.0 °F - 48.2 °F 67% 29.75 in 6.0 mi NE 16.1 mph - N/A   Haze
3:35 PM 60.8 °F - 48.2 °F 63% 29.74 in 7.0 mi NE 13.8 mph - N/A   Scattered Clouds
3:52 PM 60.1 °F - 48.9 °F 67% 29.76 in 7.0 mi NE 15.0 mph - N/A   Scattered Clouds
4:07 PM 60.8 °F - 48.2 °F 63% 29.76 in 7.0 mi NE 11.5 mph - N/A   Mostly Cloudy
4:52 PM 59.0 °F - 48.9 °F 69% 29.78 in 7.0 mi NE 13.8 mph - N/A   Mostly Cloudy
5:23 PM 57.2 °F - 48.2 °F 72% 29.78 in 8.0 mi NNE 12.7 mph - N/A   Scattered Clouds
5:52 PM 57.9 °F - 48.0 °F 70% 29.80 in 8.0 mi NE 15.0 mph - N/A   Scattered Clouds
6:52 PM 53.1 °F - 46.9 °F 80% 29.83 in 6.0 mi North 21.9 mph - N/A   Haze
7:03 PM 51.8 °F - 46.4 °F 82% 29.82 in 4.0 mi North 21.9 mph 27.6 mph N/A   Haze
7:52 PM 46.9 °F - 44.1 °F 90% 29.87 in 4.0 mi NNE 24.2 mph 31.1 mph N/A   Overcast
8:00 PM 46.4 °F 38.1 °F 42.8 °F 87% 29.85 in 4.0 mi NNE 24.2 mph 29.9 mph N/A   Overcast
8:52 PM 46.0 °F 37.8 °F 43.0 °F 89% 29.89 in 4.0 mi NNE 23.0 mph 29.9 mph N/A   Overcast
9:52 PM 45.0 °F 37.1 °F 42.1 °F 90% 29.92 in 4.0 mi NE 19.6 mph - N/A   Overcast
10:49 PM 44.6 °F 37.4 °F 41.0 °F 87% 29.93 in 4.0 mi NE 16.1 mph - N/A   Overcast
10:52 PM 44.1 °F 36.5 °F 41.0 °F 89% 29.96 in 4.0 mi NE 17.3 mph - N/A   Overcast
11:36 PM 42.8 °F 34.0 °F 41.0 °F 93% 29.92 in 3.0 mi NE 20.7 mph 26.5 mph N/A   Overcast
11:52 PM 43.0 °F 34.0 °F 41.0 °F 93% 29.94 in 2.5 mi NE 21.9 mph 29.9 mph N/A   Overcast